This is the latest recevied weather packets stored in our database for station/object BARLOW-WX. If no packets are shown the sender has not sent any weather packets the latest 10 day(s).
| Time | Temp. | Humidity | Pressure | Rain* | Wind** | Luminosity | Snow |
|---|---|---|---|---|---|---|---|
| 1777095983 | 12.78° C | 90% | 981.6 hPa | 0 mm | - | - | - |
| 1777095095 | 12.78° C | 93% | 981.6 hPa | 0 mm | - | - | - |
| 1777094180 | 13.33° C | 93% | 981 hPa | 0 mm | - | - | - |
| 1777093300 | 12.78° C | 93% | 981 hPa | 0 mm | - | - | - |
| 1777092381 | 13.33° C | 88% | 981.6 hPa | 0 mm | - | - | - |
| 1777091490 | 13.33° C | 91% | 980.7 hPa | 0 mm | - | - | - |
| 1777090581 | 13.89° C | 91% | 980.7 hPa | 0 mm | - | - | - |
| 1777089707 | 13.89° C | 91% | 980.7 hPa | 0 mm | - | - | - |
| 1777088783 | 13.89° C | 90% | 981.3 hPa | 0 mm | - | - | - |
| 1777087894 | 13.89° C | 88% | 981.3 hPa | 0 mm | - | - | - |
| 1777086982 | 13.89° C | 88% | 981.3 hPa | 0 mm | - | - | - |
| 1777086104 | 14.44° C | 88% | 981.3 hPa | 0 mm | - | - | - |
| 1777085182 | 14.44° C | 86% | 980.8 hPa | 0 mm | - | - | - |
| 1777084293 | 15° C | 87% | 980.5 hPa | 0 mm | - | - | - |
| 1777083381 | 15° C | 87% | 980.5 hPa | 0 mm | - | - | - |
| 1777082496 | 15.56° C | 87% | 980.5 hPa | 0 mm | - | - | - |
| 1777081581 | 15.56° C | 84% | 979.9 hPa | 0 mm | - | - | - |
| 1777080694 | 15.56° C | 84% | 979.9 hPa | 0 mm | - | - | - |
| 1777079782 | 15° C | 84% | 979.9 hPa | 0 mm | - | - | - |
| 1777078899 | 15.56° C | 84% | 979.9 hPa | 0 mm | - | - | - |
| 1777077979 | 15.56° C | 80% | 980.5 hPa | 0 mm | - | - | - |
| 1777077093 | 15.56° C | 82% | 980.8 hPa | 0 mm | - | - | - |
| 1777076180 | 15.56° C | 82% | 980.8 hPa | 0 mm | - | - | - |
| 1777075307 | 16.11° C | 82% | 980.8 hPa | 0 mm | - | - | - |
| 1777074384 | 16.11° C | 83% | 980.1 hPa | 0 mm | - | - | - |
* Rain latest hour (hover to see other rain measurements)
** Current wind speed in m/s (hover to see current wind gust speed)